Lake Charles Regional, LA

12:51 PM CDT on April 27, 2017 (GMT -0500)
Lake Charles Regional

Weather History for KLCH - June, 2013

Change the Weather History Date:

Saturday, June 29, 2013

  Actual Average Record
Temperature  
Mean Temperature 89 °F 82 °F  
Max Temperature 99 °F 90 °F 101 °F (1914)
Min Temperature 78 °F 74 °F 64 °F (1912)
Degree Days  
Heating Degree Days 0 0  
Month to date heating degree days 0 0  
Since 1 June heating degree days 0 0  
Since 1 July heating degree days 1267 1490  
Cooling Degree Days 24 17  
Month to date cooling degree days 526 462  
Year to date cooling degree days 1011 1000  
Since 1 June cooling degree days 526 462  
Growing Degree Days 40 (Base 50)    
Moisture  
Dew Point 73 °F    
Average Humidity 64    
Maximum Humidity 85    
Minimum Humidity 42    
Precipitation  
Precipitation 0.00 in 0.23 in 2.32 in (1989)
Month to date precipitation 4.06 6.61  
Year to date precipitation 33.58 27.49  
Snow  
Snow 0.00 in 0.00 in 0.00 in ()
Month to date snowfall 0.0 0.0  
Since 1 June snowfall 0.0 0.0  
Since 1 July snowfall 0.0 0.1  
Snow Depth 0.00 in    
Sea Level Pressure  
Sea Level Pressure 29.80 in    
Wind  
Wind Speed 6 mph (West)    
Max Wind Speed 16 mph    
Max Gust Speed 24 mph    
Visibility 9 miles    
Events      
T = Trace of Precipitation, MM = Missing Value Source: NWS Daily Summary

Daily Weather History Graph

Daily Weather History Graph

Search for Another Location

Airport or City:

Trip Planner

Search our weather history database for the weather conditions in past years. The results will help you decide how hot, cold, wet, or windy it might be!

Date:

Astronomy

Jun. 29, 2013 Rise Set
Actual Time 6:14 AM CDT 8:18 PM CDT
Civil Twilight 5:46 AM CDT 8:45 PM CDT
Nautical Twilight 5:13 AM CDT 9:19 PM CDT
Astronomical Twilight 4:37 AM CDT 9:54 PM CDT
Moon 12:17 AM CDT (6/29) 12:54 PM CDT (6/29)
Length of Visible Light 14h 58m
Length of Day
14h 03m
Waning Gibbous, 55% of the Moon is Illuminated
Jun 29
Waning Gibbous
Jun 29
Last Quarter
Jul 8
New
Jul 15
First Quarter
Jul 22
Full

Hourly Weather History & Observations

Time (CDT) Temp. Heat Index Dew Point Humidity Pressure Visibility Wind Dir Wind Speed Gust Speed Precip Events Conditions
12:53 AM 82.9 °F 91.8 °F 77.0 °F 82% 29.84 in 10.0 mi SW 6.9 mph - N/A   Clear
1:53 AM 82.9 °F 91.8 °F 77.0 °F 82% 29.83 in 10.0 mi WSW 5.8 mph - N/A   Scattered Clouds
2:53 AM 82.9 °F 90.8 °F 75.9 °F 79% 29.83 in 8.0 mi WSW 8.1 mph - N/A   Mostly Cloudy
3:53 AM 82.0 °F 90.2 °F 77.0 °F 85% 29.82 in 3.0 mi WSW 6.9 mph - N/A   Haze
4:53 AM 82.0 °F 88.6 °F 75.0 °F 79% 29.82 in 7.0 mi WSW 5.8 mph - N/A   Mostly Cloudy
5:53 AM 81.0 °F 86.7 °F 75.0 °F 82% 29.83 in 10.0 mi West 6.9 mph - N/A   Mostly Cloudy
6:53 AM 80.1 °F 84.2 °F 73.0 °F 79% 29.84 in 10.0 mi WSW 5.8 mph - N/A   Clear
7:53 AM 82.0 °F 87.4 °F 73.0 °F 74% 29.84 in 10.0 mi West 10.4 mph 17.3 mph N/A   Clear
8:06 AM 82.4 °F 88.2 °F 73.4 °F 74% 29.81 in 10.0 mi West 10.4 mph 18.4 mph N/A   Clear
8:53 AM 84.9 °F 90.7 °F 72.0 °F 65% 29.84 in 10.0 mi West 8.1 mph 24.2 mph N/A   Clear
9:53 AM 87.1 °F 92.8 °F 71.1 °F 59% 29.84 in 10.0 mi West 15.0 mph 19.6 mph N/A   Clear
10:53 AM 90.0 °F 96.4 °F 71.1 °F 54% 29.82 in 10.0 mi WNW 9.2 mph 16.1 mph N/A   Clear
11:53 AM 91.9 °F 99.5 °F 72.0 °F 52% 29.82 in 10.0 mi West 8.1 mph - N/A   Clear
12:53 PM 95.0 °F 104.5 °F 73.0 °F 49% 29.81 in 10.0 mi NNW 8.1 mph - N/A   Clear
1:53 PM 96.1 °F 104.9 °F 72.0 °F 46% 29.79 in 10.0 mi Calm Calm - N/A   Clear
2:53 PM 97.0 °F 103.5 °F 70.0 °F 41% 29.78 in 10.0 mi Variable 5.8 mph - N/A   Clear
3:53 PM 99.0 °F 108.5 °F 72.0 °F 42% 29.75 in 10.0 mi NNW 8.1 mph - N/A   Clear
4:53 PM 99.0 °F 108.5 °F 72.0 °F 42% 29.73 in 10.0 mi WNW 6.9 mph - N/A   Partly Cloudy
5:53 PM 95.0 °F 103.2 °F 72.0 °F 47% 29.72 in 10.0 mi WNW 3.5 mph - N/A   Scattered Clouds
6:53 PM 96.1 °F 104.9 °F 72.0 °F 46% 29.72 in 10.0 mi WNW 4.6 mph - N/A   Mostly Cloudy
7:53 PM 89.1 °F 106.4 °F 80.1 °F 75% 29.72 in 10.0 mi SW 8.1 mph - N/A   Scattered Clouds
8:53 PM 88.0 °F 104.3 °F 80.1 °F 77% 29.74 in 10.0 mi West 3.5 mph - N/A   Scattered Clouds
9:53 PM 88.0 °F 92.9 °F 70.0 °F 55% 29.77 in 10.0 mi ENE 5.8 mph - N/A   Clear
10:53 PM 86.0 °F 90.7 °F 70.0 °F 59% 29.79 in 10.0 mi Calm Calm - N/A   Clear
11:53 PM 80.1 °F 83.8 °F 72.0 °F 76% 29.80 in 10.0 mi Calm Calm - N/A   Clear